Weather History for CAPR - January, 2014

Change the Weather History Date:

Friday, January 10, 2014

  Actual Average Record
Temperature  
Mean Temperature 14 °F -  
Max Temperature 32 °F - - ()
Min Temperature -5 °F - - ()
Degree Days  
Heating Degree Days 52    
Moisture  
Dew Point 10 °F    
Average Humidity 79    
Maximum Humidity 94    
Minimum Humidity 58    
Precipitation  
Precipitation 0.01 in - - ()
Sea Level Pressure  
Sea Level Pressure 30.44 in    
Wind  
Wind Speed 2 mph ()    
Max Wind Speed 7 mph    
Max Gust Speed -    
T = Trace of Precipitation, MM = Missing Value Source: Averaged Metar Reports

Daily Weather History Graph

Daily Weather History Graph

Search for Another Location

Airport or City:

Trip Planner

Search our weather history database for the weather conditions in past years. The results will help you decide how hot, cold, wet, or windy it might be!

Date:

Astronomy

Jan. 10, 2014 Rise Set
Actual Time 7:55 AM AST 4:54 PM AST
Civil Twilight 7:22 AM AST 5:27 PM AST
Nautical Twilight 6:45 AM AST 6:04 PM AST
Astronomical Twilight 6:09 AM AST 6:40 PM AST
Moon 12:59 PM AST (1/10) 2:54 AM AST (1/10)
Length of Visible Light 10h 05m
Length of Day
8h 58m
Waxing Gibbous, 74% of the Moon is Illuminated
Jan 10
Waxing Gibbous
Jan 16
Full
Jan 24
Last Quarter
Jan 30
New
Feb 6
First Quarter

Hourly Weather History & Observations

Time (AST) Temp. Windchill Dew Point Humidity Pressure Visibility Wind Dir Wind Speed Gust Speed Precip Events Conditions
12:00 AM 3.7 °F - -4.0 °F 70% 30.56 in - SSE 1.2 mph - N/A   Unknown
1:00 AM 2.3 °F -5.2 °F -4.2 °F 74% 30.53 in - West 3.5 mph - 0.01 in   Unknown
2:00 AM -1 °F - -5 °F 72% 30.54 in - WNW 3.5 mph - -  
2:00 AM -0.6 °F -12.2 °F -5.4 °F 80% 30.54 in - NW 5.8 mph - N/A   Unknown
3:00 AM -2.6 °F - -6.9 °F 82% 30.55 in - Calm Calm - N/A   Unknown
4:00 AM -3.6 °F - -7.2 °F 85% 30.54 in - Calm Calm - N/A   Unknown
5:00 AM -3.5 °F - -6.9 °F 85% 30.54 in - West 1.2 mph - N/A   Unknown
6:00 AM -4.0 °F - -7.1 °F 87% 30.53 in - West 2.3 mph - N/A   Unknown
7:00 AM -2.9 °F - -6.0 °F 87% 30.53 in - Calm Calm - N/A   Unknown
8:00 AM -3 °F - -6 °F 79% 30.53 in - Calm Calm - -  
8:00 AM -3.3 °F - -6.2 °F 87% 30.53 in - Calm Calm - N/A   Unknown
9:00 AM 3.2 °F - -1.3 °F 82% 30.51 in - Calm Calm - N/A   Unknown
10:00 AM 13.3 °F - 3.4 °F 65% 30.51 in - Calm Calm - N/A   Unknown
11:00 AM 19.9 °F 14.9 °F 8.1 °F 60% 30.48 in - East 3.5 mph - N/A   Unknown
12:00 PM 22.3 °F 17.6 °F 16.0 °F 77% 30.44 in - ENE 3.5 mph - N/A   Unknown
1:00 PM 28.8 °F 25.0 °F 18.5 °F 66% 30.40 in - SSW 3.5 mph - N/A   Unknown
2:00 PM 30 °F - 21 °F 58% 30.38 in - SSW 5.8 mph - -  
2:00 PM 30.2 °F 24.3 °F 20.8 °F 68% 30.38 in - SSW 5.8 mph - N/A   Unknown
3:00 PM 30.2 °F 23.4 °F 20.8 °F 68% 30.37 in - SSW 6.9 mph - N/A   Unknown
4:00 PM 30.2 °F 23.4 °F 22.1 °F 72% 30.35 in - SSW 6.9 mph - N/A   Unknown
5:00 PM 30.6 °F - 23.9 °F 76% 30.35 in - SSW 2.3 mph - N/A   Unknown
6:00 PM 30.6 °F 25.8 °F 25.5 °F 82% 30.34 in - SW 4.6 mph - N/A   Unknown
7:00 PM 30.9 °F 26.2 °F 26.2 °F 83% 30.32 in - SW 4.6 mph - N/A   Unknown
8:00 PM 32 °F - 29 °F 84% 30.33 in - WSW 4.6 mph - -  
8:00 PM 31.8 °F 27.3 °F 28.9 °F 89% 30.33 in - WSW 4.6 mph - N/A   Unknown
9:00 PM 32.2 °F 27.7 °F 30.2 °F 92% 30.32 in - SW 4.6 mph - N/A   Unknown
10:00 PM 32.2 °F 27.7 °F 30.7 °F 94% 30.30 in - SW 4.6 mph - N/A   Unknown
11:00 PM 32.9 °F - 31.5 °F 94% 30.30 in - South 2.3 mph - N/A   Unknown